Check out our new BloomSky Weather System.

Active alerts


No alerts


Thunder radar  blitzortung!


Rain radar more information rain snow radar


Visit our other weather sites:

Template documentation
and downloads

And another site



Weather Underground History page Text

Daily Summary for December 6, 2017 Units:  Metric    English   Both
« Previous Day
Next Day »
Daily Weekly Monthly Yearly Custom
  High: Low: Average:
Temperature: 12.3 °C 4.9 °C 7.1 °C
Dew Point: 6.3 °C 3.7 °C 4.9 °C
Humidity: 96 % 58 % 87 %
Wind Speed: 16.1 km/h 0 km/h 4.2 km/h
Wind Gust: 24.1 km/h - -
Wind:- - SW
Pressure: 1028.3 hPa 1022.9 hPa -
Precipitation: 13.21 mm    
Historical Graphs
 
 
Tabular Data for December 6, 2017
Time Temperature Dew Point Pressure Wind Wind Speed Wind Gust Humidity Rainfall Rate (Hourly)
00:04 12.2 °C 5.1 °C 1023.6 hPa NE 4.8 km/h 12.9 km/h 62 % 0 mm
00:09 12.2 °C 4.9 °C 1023.9 hPa North 4.8 km/h 11.3 km/h 61 % 0 mm
00:14 12.2 °C 4.9 °C 1023.6 hPa Calm   12.9 km/h 61 % 0 mm
00:19 12.2 °C 4.7 °C 1023.6 hPa Calm   12.9 km/h 60 % 0 mm
00:24 12.2 °C 4.7 °C 1024.3 hPa Calm   14.5 km/h 60 % 0 mm
00:29 12.3 °C 4.8 °C 1024.3 hPa NNW 6.4 km/h 14.5 km/h 60 % 0 mm
00:34 12.3 °C 4.8 °C 1024.3 hPa NNW 8 km/h 14.5 km/h 60 % 0 mm
00:39 12.3 °C 4.8 °C 1024.3 hPa North 3.2 km/h 11.3 km/h 60 % 0 mm
00:44 12.2 °C 4.7 °C 1024.3 hPa NNW 1.6 km/h 11.3 km/h 60 % 0 mm
00:45 12.2 °C 4.7 °C 1024.3 hPa NNW 4.8 km/h 11.3 km/h 60 % 0 mm
00:50 12.2 °C 4.7 °C 1023.6 hPa East 4.8 km/h 11.3 km/h 60 % 0 mm
01:00 12.1 °C 4.8 °C 1023.6 hPa Calm   9.7 km/h 61 % 0 mm
01:05 12.1 °C 4.3 °C 1023.6 hPa NW 4.8 km/h 11.3 km/h 59 % 0 mm
01:10 12.1 °C 4.1 °C 1023.9 hPa West 8 km/h 11.3 km/h 58 % 0 mm
01:15 12.1 °C 4.1 °C 1023.9 hPa NNW 4.8 km/h 11.3 km/h 58 % 0 mm
01:25 11.8 °C 4.8 °C 1023.6 hPa NW 1.6 km/h 17.7 km/h 62 % 0 mm
01:30 11.3 °C 5.4 °C 1023.9 hPa West 3.2 km/h 17.7 km/h 67 % 0.25 mm
01:35 10.9 °C 5.4 °C 1024.3 hPa West 3.2 km/h 17.7 km/h 69 % 0.51 mm
01:40 10.6 °C 5.6 °C 1023.6 hPa NW 1.6 km/h 11.3 km/h 71 % 0.51 mm
01:45 10.4 °C 5.2 °C 1023.2 hPa NNW 6.4 km/h 12.9 km/h 70 % 0.51 mm
01:50 10.6 °C 4.5 °C 1023.6 hPa NE 4.8 km/h 17.7 km/h 66 % 0.51 mm
01:55 10.8 °C 4.7 °C 1023.6 hPa ESE 8 km/h 22.5 km/h 66 % 0.51 mm
02:00 10.9 °C 4.6 °C 1023.6 hPa NW 6.4 km/h 22.5 km/h 65 % 0.51 mm
02:05 10.9 °C 4.4 °C 1023.9 hPa Calm   22.5 km/h 64 % 0.51 mm
02:10 11.1 °C 4.3 °C 1023.2 hPa NNW 6.4 km/h 22.5 km/h 63 % 0.51 mm
02:15 11.1 °C 4.3 °C 1023.6 hPa WNW 4.8 km/h 22.5 km/h 63 % 0.51 mm
02:20 11.1 °C 4.3 °C 1023.2 hPa NW 14.5 km/h 22.5 km/h 63 % 0.51 mm
02:26 10.9 °C 3.9 °C 1023.2 hPa North 6.4 km/h 20.9 km/h 62 % 0.51 mm
02:31 10.9 °C 3.9 °C 1023.6 hPa ENE 14.5 km/h 20.9 km/h 62 % 0.25 mm
02:36 10.9 °C 3.7 °C 1023.6 hPa NNW 11.3 km/h 22.5 km/h 61 % 0 mm
02:41 10.9 °C 3.9 °C 1023.9 hPa NW 3.2 km/h 22.5 km/h 62 % 0 mm
02:46 10.9 °C 3.9 °C 1023.9 hPa NNE 9.7 km/h 22.5 km/h 62 % 0 mm
02:51 10.9 °C 3.9 °C 1023.2 hPa NNW 1.6 km/h 16.1 km/h 62 % 0 mm
03:01 10.8 °C 4 °C 1023.2 hPa ENE 6.4 km/h 20.9 km/h 63 % 0 mm
03:06 10.6 °C 4.1 °C 1023.6 hPa NW 6.4 km/h 20.9 km/h 64 % 0 mm
03:11 10.4 °C 4.1 °C 1023.2 hPa NE 4.8 km/h 20.9 km/h 65 % 0 mm
03:16 10.3 °C 4.4 °C 1023.9 hPa NNW 3.2 km/h 16.1 km/h 67 % 0 mm
03:21 10.2 °C 4.8 °C 1023.6 hPa Calm   16.1 km/h 69 % 0 mm
03:26 10.1 °C 4.7 °C 1022.9 hPa NNE 4.8 km/h 14.5 km/h 69 % 0 mm
03:31 10 °C 4.8 °C 1023.2 hPa NW 8 km/h 14.5 km/h 70 % 0 mm
03:36 9.9 °C 4.7 °C 1023.2 hPa Calm   14.5 km/h 70 % 0 mm
03:41 9.9 °C 5.1 °C 1022.9 hPa NNW 6.4 km/h 12.9 km/h 72 % 0 mm
03:46 9.8 °C 5.2 °C 1023.2 hPa North 9.7 km/h 12.9 km/h 73 % 0 mm
03:51 9.7 °C 5.3 °C 1023.2 hPa Calm   11.3 km/h 74 % 0 mm
03:56 9.6 °C 5.4 °C 1023.2 hPa North 1.6 km/h 11.3 km/h 75 % 0 mm
04:01 9.5 °C 5.1 °C 1023.2 hPa NW 3.2 km/h 17.7 km/h 74 % 0 mm
04:06 9.5 °C 5.3 °C 1023.6 hPa West 6.4 km/h 17.7 km/h 75 % 0 mm
04:11 9.4 °C 5 °C 1023.6 hPa NNW 3.2 km/h 17.7 km/h 74 % 0 mm
04:16 9.4 °C 5 °C 1023.6 hPa NW 6.4 km/h 14.5 km/h 74 % 0 mm
04:21 9.4 °C 4.6 °C 1023.2 hPa NNW 4.8 km/h 14.5 km/h 72 % 0 mm
04:26 9.4 °C 4.4 °C 1023.2 hPa North 6.4 km/h 20.9 km/h 71 % 0 mm
04:31 9.3 °C 4.5 °C 1023.2 hPa WNW 4.8 km/h 20.9 km/h 72 % 0 mm
04:36 9.3 °C 4.5 °C 1023.2 hPa NNW 8 km/h 20.9 km/h 72 % 0 mm
04:41 9.2 °C 5.2 °C 1023.6 hPa NNW 4.8 km/h 20.9 km/h 76 % 0 mm
04:46 8.9 °C 5.3 °C 1023.6 hPa North 11.3 km/h 20.9 km/h 78 % 0 mm
04:51 8.6 °C 5.3 °C 1023.6 hPa NNW 8 km/h 22.5 km/h 80 % 0 mm
04:56 8.4 °C 5.3 °C 1023.6 hPa NNE 6.4 km/h 22.5 km/h 81 % 0 mm
05:01 8.3 °C 5.1 °C 1023.2 hPa NNE 4.8 km/h 22.5 km/h 80 % 0 mm
05:06 8.3 °C 5.1 °C 1023.6 hPa ENE 4.8 km/h 20.9 km/h 80 % 0 mm
05:11 8.4 °C 5.2 °C 1023.2 hPa NNE 3.2 km/h 20.9 km/h 80 % 0 mm
05:21 8.4 °C 5.3 °C 1023.6 hPa West 8 km/h 12.9 km/h 81 % 0 mm
05:26 8.4 °C 5.3 °C 1023.6 hPa NNW 6.4 km/h 12.9 km/h 81 % 0 mm
05:31 8.4 °C 5.3 °C 1023.6 hPa SSW 3.2 km/h 12.9 km/h 81 % 0 mm
05:36 8.4 °C 5.3 °C 1023.2 hPa NW 3.2 km/h 20.9 km/h 81 % 0 mm
05:41 8.4 °C 5.3 °C 1023.2 hPa NE 3.2 km/h 20.9 km/h 81 % 0 mm
05:46 8.4 °C 5.3 °C 1023.6 hPa NNW 8 km/h 20.9 km/h 81 % 0 mm
05:56 8.4 °C 5.2 °C 1023.6 hPa NW 4.8 km/h 14.5 km/h 80 % 0 mm
06:01 8.5 °C 5.2 °C 1023.9 hPa NNW 1.6 km/h 14.5 km/h 80 % 0 mm
06:07 8.5 °C 5.1 °C 1023.9 hPa North 4.8 km/h 14.5 km/h 79 % 0 mm
06:12 8.5 °C 4.9 °C 1023.9 hPa NNW 4.8 km/h 12.9 km/h 78 % 0 mm
06:17 8.6 °C 4.8 °C 1024.3 hPa North 4.8 km/h 12.9 km/h 77 % 0 mm
06:22 8.6 °C 4.4 °C 1024.3 hPa NNW 6.4 km/h 12.9 km/h 75 % 0 mm
06:27 8.7 °C 4.5 °C 1023.9 hPa NNW 3.2 km/h 20.9 km/h 75 % 0 mm
06:32 8.7 °C 4.3 °C 1024.3 hPa North 6.4 km/h 20.9 km/h 74 % 0 mm
06:37 8.7 °C 4.7 °C 1024.3 hPa NNE 3.2 km/h 20.9 km/h 76 % 0 mm
06:42 8.4 °C 5 °C 1024.3 hPa NE 4.8 km/h 14.5 km/h 79 % 0 mm
06:47 8.2 °C 5.1 °C 1024.9 hPa NNW 3.2 km/h 14.5 km/h 81 % 0 mm
06:52 8.1 °C 5 °C 1024.9 hPa NE 3.2 km/h 14.5 km/h 81 % 0 mm
06:57 8 °C 5.3 °C 1024.9 hPa NW 3.2 km/h 14.5 km/h 83 % 0.25 mm
07:02 7.8 °C 5.4 °C 1025.3 hPa North 6.4 km/h 14.5 km/h 85 % 0.51 mm
07:07 7.7 °C 5.5 °C 1025.3 hPa NW 8 km/h 12.9 km/h 86 % 0.76 mm
07:12 7.5 °C 5.6 °C 1024.9 hPa NW 6.4 km/h 12.9 km/h 88 % 1.27 mm
07:17 7.3 °C 5.8 °C 1025.3 hPa North 4.8 km/h 14.5 km/h 90 % 1.78 mm
07:22 7.1 °C 5.6 °C 1025.3 hPa East 6.4 km/h 14.5 km/h 90 % 2.54 mm
07:27 6.9 °C 5.7 °C 1024.9 hPa NE 12.9 km/h 14.5 km/h 92 % 3.05 mm
07:32 6.9 °C 5.7 °C 1024.9 hPa Calm   14.5 km/h 92 % 3.05 mm
07:37 6.8 °C 5.6 °C 1025.6 hPa Calm   14.5 km/h 92 % 3.3 mm
07:42 6.9 °C 5.8 °C 1025.6 hPa NW 3.2 km/h 14.5 km/h 93 % 3.56 mm
07:47 6.8 °C 5.7 °C 1026 hPa NNW 3.2 km/h 12.9 km/h 93 % 3.81 mm
07:52 6.7 °C 5.5 °C 1025.3 hPa ENE 3.2 km/h 14.5 km/h 92 % 4.06 mm
07:57 6.7 °C 5.5 °C 1025.3 hPa North 4.8 km/h 16.1 km/h 92 % 4.06 mm
08:02 6.7 °C 5.6 °C 1024.9 hPa ENE 12.9 km/h 16.1 km/h 93 % 4.06 mm
08:07 6.6 °C 5.5 °C 1025.3 hPa NNW 3.2 km/h 16.1 km/h 93 % 4.06 mm
08:12 6.6 °C 5.5 °C 1025.6 hPa NW 4.8 km/h 16.1 km/h 93 % 3.81 mm
08:17 6.6 °C 5.5 °C 1026 hPa North 1.6 km/h 12.9 km/h 93 % 3.3 mm
08:22 6.6 °C 5.5 °C 1026 hPa NNE 1.6 km/h 17.7 km/h 93 % 2.79 mm
08:27 6.5 °C 5.4 °C 1025.6 hPa NW 3.2 km/h 17.7 km/h 93 % 2.54 mm
08:32 6.5 °C 5.4 °C 1025.3 hPa NNE 1.6 km/h 17.7 km/h 93 % 2.79 mm
08:37 6.4 °C 5.4 °C 1024.9 hPa North 9.7 km/h 14.5 km/h 93 % 2.54 mm
08:42 6.4 °C 5.4 °C 1025.6 hPa North 4.8 km/h 14.5 km/h 93 % 2.29 mm
08:47 6.3 °C 5.3 °C 1025.6 hPa NW 3.2 km/h 14.5 km/h 93 % 2.29 mm
08:52 6.4 °C 5.4 °C 1026.6 hPa Calm   14.5 km/h 93 % 2.03 mm
08:57 6.4 °C 5.4 °C 1027 hPa NNW 1.6 km/h 14.5 km/h 93 % 1.78 mm
09:02 6.5 °C 5.6 °C 1026 hPa NE 4.8 km/h 9.7 km/h 94 % 1.52 mm
09:07 6.6 °C 5.7 °C 1026.3 hPa NNE 3.2 km/h 12.9 km/h 94 % 1.27 mm
09:12 6.5 °C 5.4 °C 1026.3 hPa NNW 9.7 km/h 12.9 km/h 93 % 1.02 mm
09:17 6.4 °C 5.4 °C 1027 hPa NNW 3.2 km/h 16.1 km/h 93 % 1.27 mm
09:22 6.4 °C 5.4 °C 1027 hPa SW 1.6 km/h 16.1 km/h 93 % 1.02 mm
09:27 6.4 °C 5.5 °C 1027 hPa NNW 1.6 km/h 16.1 km/h 94 % 0.76 mm
09:32 6.5 °C 5.6 °C 1026.6 hPa North 3.2 km/h 12.9 km/h 94 % 0.51 mm
09:37 6.5 °C 5.6 °C 1027.3 hPa NW 6.4 km/h 14.5 km/h 94 % 0.51 mm
09:42 6.4 °C 5.4 °C 1028.3 hPa NNW 6.4 km/h 14.5 km/h 93 % 0.51 mm
09:47 6.4 °C 5.4 °C 1028.3 hPa NW 3.2 km/h 14.5 km/h 93 % 0.51 mm
09:52 6.5 °C 5.6 °C 1027.7 hPa NE 6.4 km/h 12.9 km/h 94 % 0.51 mm
09:57 6.6 °C 5.7 °C 1026.6 hPa NNE 8 km/h 12.9 km/h 94 % 1.02 mm
10:02 6.5 °C 5.6 °C 1027.3 hPa NNE 6.4 km/h 11.3 km/h 94 % 1.27 mm
10:07 6.5 °C 5.6 °C 1027.3 hPa NNW 1.6 km/h 12.9 km/h 94 % 1.52 mm
10:12 6.6 °C 5.9 °C 1027.3 hPa West 1.6 km/h 12.9 km/h 95 % 1.27 mm
10:17 6.6 °C 5.9 °C 1027 hPa NNW 6.4 km/h 12.9 km/h 95 % 1.27 mm
10:22 6.6 °C 5.9 °C 1027 hPa NNE 3.2 km/h 11.3 km/h 95 % 1.27 mm
10:27 6.7 °C 6 °C 1027 hPa East 4.8 km/h 11.3 km/h 95 % 1.52 mm
10:32 6.7 °C 6 °C 1026.6 hPa North 1.6 km/h 12.9 km/h 95 % 1.52 mm
10:37 6.7 °C 6 °C 1026.3 hPa NNE 4.8 km/h 12.9 km/h 95 % 1.52 mm
10:42 6.7 °C 6 °C 1027 hPa NNW 1.6 km/h 16.1 km/h 95 % 1.52 mm
10:47 6.7 °C 6 °C 1027.7 hPa Calm   16.1 km/h 95 % 1.27 mm
10:52 6.8 °C 6.1 °C 1028 hPa NNE 9.7 km/h 16.1 km/h 95 % 1.27 mm
10:57 6.8 °C 6.1 °C 1028 hPa East 4.8 km/h 11.3 km/h 95 % 0.76 mm
11:02 6.8 °C 6.1 °C 1027.7 hPa NNW 4.8 km/h 12.9 km/h 95 % 0.51 mm
11:07 6.8 °C 6.1 °C 1027.3 hPa NE 1.6 km/h 12.9 km/h 95 % 0.51 mm
11:12 6.9 °C 6.2 °C 1027.3 hPa North 4.8 km/h 12.9 km/h 95 % 0.51 mm
11:17 6.9 °C 6.2 °C 1027.3 hPa NNW 9.7 km/h 11.3 km/h 95 % 0.76 mm
11:22 6.9 °C 6.2 °C 1028 hPa NNW 1.6 km/h 11.3 km/h 95 % 0.76 mm
11:27 7 °C 6.3 °C 1028 hPa NNE 3.2 km/h 11.3 km/h 95 % 0.51 mm
11:33 7 °C 6.1 °C 1027.3 hPa NE 8 km/h 11.3 km/h 94 % 0.51 mm
11:38 6.9 °C 6 °C 1027 hPa NNW 3.2 km/h 12.9 km/h 94 % 0.51 mm
11:43 7 °C 6.1 °C 1027.3 hPa Calm   12.9 km/h 94 % 0.76 mm
11:48 6.9 °C 5.8 °C 1027.3 hPa NW 1.6 km/h 12.9 km/h 93 % 0.76 mm
11:53 7.1 °C 6 °C 1026.6 hPa North 3.2 km/h 14.5 km/h 93 % 0.76 mm
11:58 7.1 °C 6 °C 1026 hPa North 4.8 km/h 16.1 km/h 93 % 0.76 mm
12:03 7 °C 5.9 °C 1026 hPa NNE 3.2 km/h 16.1 km/h 93 % 0.76 mm
12:08 7 °C 5.9 °C 1026.3 hPa NNW 1.6 km/h 16.1 km/h 93 % 0.51 mm
12:13 7.1 °C 6.2 °C 1026.3 hPa ENE 14.5 km/h 14.5 km/h 94 % 0.51 mm
12:18 7 °C 5.9 °C 1026 hPa NNW 6.4 km/h 17.7 km/h 93 % 0.25 mm
12:28 7 °C 5.9 °C 1026.6 hPa NNE 1.6 km/h 17.7 km/h 93 % 0.25 mm
12:33 7.1 °C 6 °C 1025.6 hPa NNE 1.6 km/h 9.7 km/h 93 % 0.25 mm
12:38 6.9 °C 5.8 °C 1025.6 hPa NNW 16.1 km/h 16.1 km/h 93 % 0.25 mm
12:43 6.9 °C 5.8 °C 1026 hPa NNE 1.6 km/h 16.1 km/h 93 % 0.25 mm
12:48 6.8 °C 5.7 °C 1026.3 hPa NNW 3.2 km/h 16.1 km/h 93 % 0.25 mm
12:53 6.8 °C 5.7 °C 1025.3 hPa NNE 3.2 km/h 16.1 km/h 93 % 0.25 mm
12:58 6.8 °C 5.7 °C 1025.3 hPa Calm   14.5 km/h 93 % 0.25 mm
13:03 6.8 °C 5.7 °C 1026 hPa NNW 4.8 km/h 16.1 km/h 93 % 0.51 mm
13:08 6.6 °C 5.4 °C 1026 hPa NNE 4.8 km/h 16.1 km/h 92 % 0.76 mm
13:13 6.6 °C 5.5 °C 1026 hPa Calm   16.1 km/h 93 % 0.76 mm
13:18 6.5 °C 5.4 °C 1025.6 hPa NNE 12.9 km/h 14.5 km/h 93 % 0.76 mm
13:23 6.4 °C 5.4 °C 1025.6 hPa NE 1.6 km/h 14.5 km/h 93 % 1.02 mm
13:28 6.3 °C 5.3 °C 1026 hPa NNW 8 km/h 14.5 km/h 93 % 1.02 mm
13:33 6.3 °C 5.3 °C 1025.6 hPa North 8 km/h 14.5 km/h 93 % 1.02 mm
13:38 6.2 °C 5 °C 1025.6 hPa NW 9.7 km/h 16.1 km/h 92 % 1.02 mm
13:43 6.2 °C 5.2 °C 1026 hPa NNW 9.7 km/h 16.1 km/h 93 % 1.02 mm
13:48 6.1 °C 4.7 °C 1026 hPa NNW 1.6 km/h 20.9 km/h 91 % 1.02 mm
13:53 6 °C 4.8 °C 1025.6 hPa NNW 3.2 km/h 20.9 km/h 92 % 1.02 mm
13:58 6.1 °C 4.9 °C 1026 hPa North 6.4 km/h 24.1 km/h 92 % 1.02 mm
14:03 6 °C 4.8 °C 1025.6 hPa NNW 6.4 km/h 24.1 km/h 92 % 0.76 mm
14:08 5.9 °C 4.7 °C 1026 hPa NNW 4.8 km/h 24.1 km/h 92 % 0.51 mm
14:13 5.9 °C 4.7 °C 1026 hPa North 4.8 km/h 17.7 km/h 92 % 0.51 mm
14:18 6 °C 5 °C 1025.3 hPa NNW 1.6 km/h 17.7 km/h 93 % 0.51 mm
14:23 5.9 °C 4.7 °C 1026 hPa NW 3.2 km/h 17.7 km/h 92 % 0.25 mm
14:28 5.8 °C 4.6 °C 1026 hPa Calm   16.1 km/h 92 % 0.51 mm
14:33 5.7 °C 4.5 °C 1025.6 hPa NNW 1.6 km/h 16.1 km/h 92 % 0.76 mm
14:38 5.6 °C 4.4 °C 1026 hPa Calm   16.1 km/h 92 % 0.76 mm
14:43 5.5 °C 4.3 °C 1026 hPa North 8 km/h 16.1 km/h 92 % 0.51 mm
14:48 5.4 °C 4 °C 1026 hPa WNW 11.3 km/h 14.5 km/h 91 % 0.51 mm
14:53 5.4 °C 4.2 °C 1026 hPa NNW 1.6 km/h 14.5 km/h 92 % 0.51 mm
14:58 5.3 °C 4 °C 1026.3 hPa NNE 9.7 km/h 14.5 km/h 91 % 0.76 mm
15:03 5.3 °C 4.1 °C 1026 hPa NNW 4.8 km/h 14.5 km/h 92 % 0.76 mm
15:08 5.3 °C 4.1 °C 1026 hPa NNW 3.2 km/h 16.1 km/h 92 % 0.76 mm
15:13 5.2 °C 4 °C 1025.6 hPa North 1.6 km/h 16.1 km/h 92 % 1.02 mm
15:18 5.2 °C 4 °C 1026 hPa NE 3.2 km/h 16.1 km/h 92 % 1.02 mm
15:23 5.2 °C 4 °C 1026 hPa NNW 4.8 km/h 16.1 km/h 92 % 0.76 mm
15:28 5.2 °C 4 °C 1026 hPa WNW 4.8 km/h 16.1 km/h 92 % 0.76 mm
15:33 5.2 °C 4 °C 1026.3 hPa NNE 1.6 km/h 16.1 km/h 92 % 0.51 mm
15:38 5.2 °C 4 °C 1026 hPa NNW 6.4 km/h 16.1 km/h 92 % 0.51 mm
15:43 5.1 °C 3.9 °C 1026 hPa NW 4.8 km/h 16.1 km/h 92 % 0.51 mm
15:49 5.1 °C 3.9 °C 1026 hPa North 3.2 km/h 16.1 km/h 92 % 0.76 mm
15:54 5.1 °C 3.9 °C 1026 hPa NNW 4.8 km/h 16.1 km/h 92 % 0.76 mm
15:59 5.1 °C 3.9 °C 1026 hPa NW 8 km/h 12.9 km/h 92 % 0.51 mm
16:04 5 °C 3.8 °C 1026 hPa North 4.8 km/h 14.5 km/h 92 % 0.51 mm
16:09 5 °C 3.8 °C 1026 hPa NW 3.2 km/h 14.5 km/h 92 % 0.51 mm
16:14 5.1 °C 4.1 °C 1026 hPa NNW 3.2 km/h 14.5 km/h 93 % 0.25 mm
16:19 5.1 °C 3.9 °C 1025.6 hPa NNE 3.2 km/h 9.7 km/h 92 % 0.25 mm
16:24 5.1 °C 3.9 °C 1026 hPa NNE 4.8 km/h 11.3 km/h 92 % 0.25 mm
16:29 5.1 °C 3.9 °C 1026 hPa North 3.2 km/h 11.3 km/h 92 % 0.25 mm
16:34 5.1 °C 3.9 °C 1026 hPa East 1.6 km/h 11.3 km/h 92 % 0.25 mm
16:39 5.1 °C 3.9 °C 1025.6 hPa WNW 3.2 km/h 9.7 km/h 92 % 0.25 mm
16:44 5.1 °C 3.9 °C 1026 hPa NNW 4.8 km/h 12.9 km/h 92 % 0.25 mm
16:49 5.1 °C 3.9 °C 1025.6 hPa NNW 1.6 km/h 14.5 km/h 92 % 0 mm
16:54 5.2 °C 4 °C 1025.6 hPa North 3.2 km/h 14.5 km/h 92 % 0 mm
16:59 5.2 °C 4.2 °C 1026 hPa WNW 3.2 km/h 14.5 km/h 93 % 0 mm
17:04 5.2 °C 4 °C 1026 hPa Calm   11.3 km/h 92 % 0 mm
17:09 5.2 °C 4 °C 1026 hPa NW 4.8 km/h 11.3 km/h 92 % 0 mm
17:14 5.1 °C 3.9 °C 1026 hPa NNE 1.6 km/h 12.9 km/h 92 % 0 mm
17:19 5.1 °C 3.9 °C 1026 hPa NE 4.8 km/h 12.9 km/h 92 % 0 mm
17:24 5.1 °C 3.9 °C 1026 hPa North 4.8 km/h 12.9 km/h 92 % 0 mm
17:29 5.1 °C 3.9 °C 1026 hPa NNW 1.6 km/h 14.5 km/h 92 % 0 mm
17:34 5 °C 3.8 °C 1026 hPa NW 3.2 km/h 16.1 km/h 92 % 0.25 mm
17:39 4.9 °C 3.9 °C 1026 hPa ENE 4.8 km/h 16.1 km/h 93 % 0.25 mm
17:44 4.9 °C 3.9 °C 1026 hPa NNW 4.8 km/h 16.1 km/h 93 % 0.25 mm
17:49 5 °C 4 °C 1026 hPa Calm   12.9 km/h 93 % 0.25 mm
17:54 5.1 °C 4.1 °C 1026 hPa Calm   14.5 km/h 93 % 0.25 mm
17:59 5.1 °C 4.1 °C 1026 hPa NE 3.2 km/h 14.5 km/h 93 % 0.25 mm
18:04 5.1 °C 4.2 °C 1026 hPa North 3.2 km/h 14.5 km/h 94 % 0.25 mm
18:09 5.1 °C 4.2 °C 1026 hPa North 3.2 km/h 12.9 km/h 94 % 0.25 mm
18:14 5.1 °C 4.2 °C 1025.6 hPa NE 1.6 km/h 12.9 km/h 94 % 0.25 mm
18:19 5.1 °C 4.2 °C 1025.6 hPa Calm   11.3 km/h 94 % 0.25 mm
18:24 5.2 °C 4.3 °C 1025.6 hPa Calm   11.3 km/h 94 % 0.25 mm
18:29 5.2 °C 4.3 °C 1026 hPa Calm   9.7 km/h 94 % 0.25 mm
18:34 5.2 °C 4.3 °C 1026 hPa NNE 4.8 km/h 9.7 km/h 94 % 0 mm
18:39 5.2 °C 4.3 °C 1026 hPa NNW 3.2 km/h 9.7 km/h 94 % 0 mm
18:44 5.2 °C 4.2 °C 1026 hPa Calm   9.7 km/h 93 % 0 mm
18:49 5.3 °C 4.3 °C 1026 hPa NNW 3.2 km/h 9.7 km/h 93 % 0 mm
18:54 5.3 °C 4.4 °C 1026.3 hPa NE 3.2 km/h 9.7 km/h 94 % 0 mm
18:59 5.3 °C 4.3 °C 1026 hPa NNE 3.2 km/h 8 km/h 93 % 0 mm
19:04 5.3 °C 4.3 °C 1026.3 hPa NNW 1.6 km/h 9.7 km/h 93 % 0 mm
19:09 5.3 °C 4.3 °C 1026.3 hPa NE 3.2 km/h 9.7 km/h 93 % 0 mm
19:14 5.3 °C 4.3 °C 1026.3 hPa NNW 4.8 km/h 12.9 km/h 93 % 0 mm
19:19 5.2 °C 4.2 °C 1026.3 hPa NNE 6.4 km/h 16.1 km/h 93 % 0 mm
19:24 5.2 °C 4.2 °C 1026.6 hPa WNW 3.2 km/h 16.1 km/h 93 % 0 mm
19:30 5.2 °C 4.2 °C 1026.6 hPa NNW 9.7 km/h 16.1 km/h 93 % 0 mm
19:35 5.2 °C 4.2 °C 1026.6 hPa NNE 3.2 km/h 12.9 km/h 93 % 0 mm
19:40 5.1 °C 4.1 °C 1026.6 hPa North 3.2 km/h 12.9 km/h 93 % 0 mm
19:45 5.1 °C 4.1 °C 1026.6 hPa NW 4.8 km/h 14.5 km/h 93 % 0 mm
19:50 5.2 °C 4.2 °C 1026.6 hPa North 3.2 km/h 14.5 km/h 93 % 0 mm
19:55 5.2 °C 4.2 °C 1026.6 hPa NNE 1.6 km/h 8 km/h 93 % 0 mm
20:00 5.2 °C 4.2 °C 1026.6 hPa NNW 1.6 km/h 6.4 km/h 93 % 0.25 mm
20:05 5.2 °C 4.3 °C 1026.6 hPa NW 3.2 km/h 8 km/h 94 % 0.25 mm
20:10 5.3 °C 4.4 °C 1027 hPa NW 3.2 km/h 9.7 km/h 94 % 0.25 mm
20:12 5.2 °C 4.3 °C 1027 hPa NNW 4.8 km/h 9.7 km/h 94 % 0.25 mm
20:17 5.3 °C 4.6 °C 1027 hPa NW 1.6 km/h 11.3 km/h 95 % 0.25 mm
20:22 5.2 °C 4.5 °C 1027 hPa NW 3.2 km/h 11.3 km/h 95 % 0.25 mm
20:27 5.2 °C 4.5 °C 1026.6 hPa NW 3.2 km/h 11.3 km/h 95 % 0.51 mm
20:32 5.2 °C 4.5 °C 1026.6 hPa NNW 8 km/h 9.7 km/h 95 % 0.51 mm
20:33 5.2 °C 4.5 °C 1026.6 hPa NW 6.4 km/h 9.7 km/h 95 % 0.51 mm
20:38 5.2 °C 4.5 °C 1026.6 hPa NNE 6.4 km/h 9.7 km/h 95 % 0.51 mm
20:43 5.3 °C 4.7 °C 1026.6 hPa NNW 1.6 km/h 9.7 km/h 96 % 0.51 mm
20:48 5.3 °C 4.7 °C 1026.6 hPa North 3.2 km/h 9.7 km/h 96 % 0.76 mm
20:53 5.3 °C 4.7 °C 1027 hPa NW 3.2 km/h 12.9 km/h 96 % 0.76 mm
20:58 5.3 °C 4.7 °C 1026.6 hPa NW 1.6 km/h 12.9 km/h 96 % 0.76 mm
21:03 5.3 °C 4.7 °C 1027 hPa NNW 6.4 km/h 12.9 km/h 96 % 0.51 mm
21:08 5.4 °C 4.8 °C 1027 hPa NNW 4.8 km/h 11.3 km/h 96 % 0.51 mm
21:13 5.4 °C 4.8 °C 1027 hPa NW 1.6 km/h 11.3 km/h 96 % 0.51 mm
21:18 5.4 °C 4.8 °C 1027.3 hPa WNW 1.6 km/h 11.3 km/h 96 % 0.51 mm
21:22 5.4 °C 4.8 °C 1027 hPa NNW 6.4 km/h 11.3 km/h 96 % 0.51 mm
21:23 5.4 °C 4.8 °C 1027 hPa North 1.6 km/h 11.3 km/h 96 % 0.51 mm
21:28 5.4 °C 4.8 °C 1027.3 hPa NW 1.6 km/h 11.3 km/h 96 % 0.25 mm
21:33 5.4 °C 4.8 °C 1027.3 hPa NNW 3.2 km/h 11.3 km/h 96 % 0.51 mm
21:38 5.4 °C 4.8 °C 1027 hPa NW 1.6 km/h 9.7 km/h 96 % 0.51 mm
21:43 5.4 °C 4.7 °C 1027 hPa NW 3.2 km/h 9.7 km/h 95 % 0.51 mm
21:48 5.4 °C 4.7 °C 1027 hPa NW 4.8 km/h 12.9 km/h 95 % 0.25 mm
21:53 5.4 °C 4.7 °C 1027 hPa NW 1.6 km/h 12.9 km/h 95 % 0.25 mm
21:58 5.4 °C 4.7 °C 1027 hPa Calm   12.9 km/h 95 % 0.25 mm
22:03 5.4 °C 4.7 °C 1027.3 hPa NW 1.6 km/h 9.7 km/h 95 % 0.25 mm
22:08 5.4 °C 4.7 °C 1027.3 hPa WNW 3.2 km/h 9.7 km/h 95 % 0.25 mm
22:13 5.5 °C 4.8 °C 1027.3 hPa NW 1.6 km/h 6.4 km/h 95 % 0.25 mm
22:18 5.5 °C 4.8 °C 1027.3 hPa NNW 1.6 km/h 8 km/h 95 % 0.25 mm
22:23 5.5 °C 4.8 °C 1027.3 hPa NNW 1.6 km/h 8 km/h 95 % 0.25 mm
22:28 5.6 °C 4.9 °C 1027.3 hPa NW 3.2 km/h 8 km/h 95 % 0.51 mm
22:33 5.6 °C 4.9 °C 1027.3 hPa NW 1.6 km/h 6.4 km/h 95 % 0.25 mm
22:38 5.6 °C 4.9 °C 1027.3 hPa NNW 4.8 km/h 4.8 km/h 95 % 0.25 mm
22:43 5.6 °C 4.9 °C 1027.3 hPa NNW 4.8 km/h 6.4 km/h 95 % 0.25 mm
22:48 5.5 °C 4.8 °C 1027.3 hPa NNW 3.2 km/h 6.4 km/h 95 % 0.25 mm
22:53 5.6 °C 4.9 °C 1027 hPa NNW 3.2 km/h 6.4 km/h 95 % 0.25 mm
22:58 5.6 °C 4.9 °C 1027 hPa NNW 1.6 km/h 8 km/h 95 % 0.25 mm
23:03 5.6 °C 4.9 °C 1027 hPa NE 1.6 km/h 8 km/h 95 % 0.25 mm
23:08 5.6 °C 4.9 °C 1027 hPa NW 3.2 km/h 9.7 km/h 95 % 0.25 mm
23:13 5.6 °C 4.9 °C 1026.6 hPa NW 1.6 km/h 9.7 km/h 95 % 0.25 mm
23:18 5.6 °C 4.9 °C 1027 hPa NNW 1.6 km/h 9.7 km/h 95 % 0.25 mm
23:23 5.6 °C 4.9 °C 1026.6 hPa NNW 3.2 km/h 8 km/h 95 % 0.25 mm
23:28 5.6 °C 4.9 °C 1026.6 hPa North 3.2 km/h 6.4 km/h 95 % 0 mm
23:33 5.6 °C 4.9 °C 1026.6 hPa NNW 1.6 km/h 6.4 km/h 95 % 0 mm
23:38 5.6 °C 4.9 °C 1026.6 hPa NW 3.2 km/h 6.4 km/h 95 % 0 mm
23:43 5.6 °C 4.9 °C 1026.6 hPa Calm   4.8 km/h 95 % 0 mm
23:48 5.6 °C 4.9 °C 1026.6 hPa NNW 1.6 km/h 4.8 km/h 95 % 0 mm
23:53 5.6 °C 4.9 °C 1026.6 hPa NNW 3.2 km/h 8 km/h 95 % 0 mm
23:58 5.6 °C 4.9 °C 1026.6 hPa NNW 4.8 km/h 8 km/h 95 % 0 mm
Spring, Texas: Villages of Bridgestone
Compliments of Weather Underground - 2.75 mb

Script developed by  Jim McMurry - jmcmurry@mwt.net Adapted for the template by  Wim van der Kuil - Leuven-Template.eu

You find our weather info also at:

UK Metoffice

WeatherCloud

Weather Underground

Mid-South Weather Network

AWEKAS

Citizen Weather Observer Program (CWOP)

HAMweather, WeatherForYou, PWS Weather

Equipment we use:

Weather-station
Davis Vantage Vue

Weather-program
Meteohub

Weather-server
Debian 7.9 x86 (Guest)

Provider
DreamHost

Davis Vantage Vue

Meteohub

Debian 7.9 x86 (Guest)

DreamHost